Time,TemperatureF,DewpointF,PressureIn,WindDirection,WindDirectionDegrees,WindSpeedMPH,WindSpeedGustMPH,Humidity,HourlyPrecipIn,Conditions,Clouds,dailyrainin,SolarRadiationWatts/m^2,SoftwareType,DateUTC
2013-03-07 00:00:00,28.0,28.0,29.42,NW,315,0.0,0.0,100,0.00,,---,0.17,0.00,VWS V14.01,2013-03-07 05:00:00,
2013-03-07 00:02:00,28.0,28.0,29.42,NW,315,0.0,1.0,100,0.00,,---,0.00,0.00,VWS V14.01,2013-03-07 05:02:00,
2013-03-07 00:07:00,28.0,28.0,29.42,WNW,292,0.0,1.0,100,0.00,,---,0.00,0.00,VWS V14.01,2013-03-07 05:07:00,
2013-03-07 00:12:00,28.0,28.0,29.42,West,270,0.0,0.0,100,0.00,,---,0.00,0.00,VWS V14.01,2013-03-07 05:12:00,
2013-03-07 00:17:00,28.0,28.0,29.41,WNW,292,0.0,1.0,100,0.00,,---,0.00,0.00,VWS V14.01,2013-03-07 05:17:00,
2013-03-07 00:22:00,28.0,28.0,29.41,WNW,292,0.0,0.0,100,0.00,,---,0.00,0.00,VWS V14.01,2013-03-07 05:22:00,
2013-03-07 00:27:00,28.0,28.0,29.41,WNW,292,0.0,1.0,100,0.00,,---,0.00,0.00,VWS V14.01,2013-03-07 05:27:00,
2013-03-07 00:32:00,28.0,28.0,29.41,NW,315,0.0,0.0,100,0.00,,---,0.00,0.00,VWS V14.01,2013-03-07 05:32:00,
2013-03-07 00:37:00,28.0,28.0,29.41,NW,315,0.0,0.0,100,0.00,,---,0.00,0.00,VWS V14.01,2013-03-07 05:37:00,
2013-03-07 00:42:00,28.0,28.0,29.41,NW,315,0.0,2.0,100,0.00,,---,0.00,0.00,VWS V14.01,2013-03-07 05:42:00,
2013-03-07 00:47:00,28.0,28.0,29.41,West,270,0.0,0.0,100,0.00,,---,0.00,0.00,VWS V14.01,2013-03-07 05:47:00,
2013-03-07 00:52:00,27.0,27.0,29.41,NNW,337,0.0,2.0,100,0.00,,---,0.00,0.00,VWS V14.01,2013-03-07 05:52:00,
2013-03-07 00:57:00,27.0,27.0,29.41,WNW,292,0.0,0.0,100,0.00,,---,0.00,0.00,VWS V14.01,2013-03-07 05:57:00,
2013-03-07 01:02:00,27.0,27.0,29.41,WNW,292,0.0,0.0,100,0.00,,---,0.00,0.00,VWS V14.01,2013-03-07 06:02:00,
2013-03-07 01:07:00,27.0,27.0,29.42,WSW,247,1.0,3.0,100,0.00,,---,0.00,0.00,VWS V14.01,2013-03-07 06:07:00,
2013-03-07 01:12:00,27.0,27.0,29.42,West,270,0.0,1.0,100,0.00,,---,0.00,0.00,VWS V14.01,2013-03-07 06:12:00,
2013-03-07 01:17:00,27.0,27.0,29.42,NW,315,0.0,1.0,100,0.00,,---,0.00,0.00,VWS V14.01,2013-03-07 06:17:00,
2013-03-07 01:23:00,27.0,27.0,29.42,WNW,292,0.0,1.0,100,0.00,,---,0.00,0.00,VWS V14.01,2013-03-07 06:23:00,
2013-03-07 01:28:00,27.0,27.0,29.41,WNW,292,0.0,3.0,100,0.00,,---,0.00,0.00,VWS V14.01,2013-03-07 06:28:00,
2013-03-07 01:33:00,27.0,27.0,29.41,NNW,337,1.0,1.0,100,0.00,,---,0.00,0.00,VWS V14.01,2013-03-07 06:33:00,
2013-03-07 01:38:00,27.0,27.0,29.43,NW,315,1.0,1.0,100,0.00,,---,0.00,0.00,VWS V14.01,2013-03-07 06:38:00,
2013-03-07 01:43:00,27.0,27.0,29.43,NNW,337,0.0,0.0,100,0.00,,---,0.00,0.00,VWS V14.01,2013-03-07 06:43:00,
2013-03-07 01:48:00,27.0,27.0,29.43,WNW,292,0.0,1.0,100,0.00,,---,0.00,0.00,VWS V14.01,2013-03-07 06:48:00,
2013-03-07 01:53:00,27.0,27.0,29.43,WNW,292,0.0,1.0,100,0.00,,---,0.00,0.00,VWS V14.01,2013-03-07 06:53:00,
2013-03-07 01:58:00,27.0,27.0,29.41,SSW,202,0.0,1.0,100,0.00,,---,0.00,0.00,VWS V14.01,2013-03-07 06:58:00,
2013-03-07 02:03:00,27.0,27.0,29.41,NW,315,0.0,0.0,100,0.00,,---,0.00,0.00,VWS V14.01,2013-03-07 07:03:00,
2013-03-07 02:08:00,27.0,27.0,29.43,WNW,292,0.0,1.0,100,0.00,,---,0.00,0.00,VWS V14.01,2013-03-07 07:08:00,
2013-03-07 02:13:00,27.0,27.0,29.43,NNW,337,0.0,0.0,100,0.00,,---,0.00,0.00,VWS V14.01,2013-03-07 07:13:00,
2013-03-07 02:18:00,27.0,27.0,29.43,SW,225,0.0,0.0,100,0.00,,---,0.00,0.00,VWS V14.01,2013-03-07 07:18:00,
2013-03-07 02:23:00,27.0,27.0,29.43,NNW,337,0.0,0.0,100,0.00,,---,0.00,0.00,VWS V14.01,2013-03-07 07:23:00,
2013-03-07 02:28:00,27.0,27.0,29.43,NW,315,0.0,2.0,100,0.00,,---,0.00,0.00,VWS V14.01,2013-03-07 07:28:00,
2013-03-07 02:33:00,27.0,27.0,29.43,West,270,0.0,1.0,100,0.00,,---,0.00,0.00,VWS V14.01,2013-03-07 07:33:00,
2013-03-07 02:38:00,27.0,27.0,29.43,NNW,337,0.0,1.0,100,0.00,,---,0.00,0.00,VWS V14.01,2013-03-07 07:38:00,
2013-03-07 02:43:00,27.0,27.0,29.43,WSW,247,0.0,0.0,100,0.00,,---,0.00,0.00,VWS V14.01,2013-03-07 07:43:00,
2013-03-07 02:48:00,27.0,27.0,29.43,WNW,292,0.0,0.0,100,0.00,,---,0.00,0.00,VWS V14.01,2013-03-07 07:48:00,
2013-03-07 02:53:00,27.0,27.0,29.43,NW,315,2.0,4.0,100,0.00,,---,0.00,0.00,VWS V14.01,2013-03-07 07:53:00,
2013-03-07 02:58:00,27.0,27.0,29.43,NNW,337,0.0,1.0,100,0.00,,---,0.00,0.00,VWS V14.01,2013-03-07 07:58:00,
2013-03-07 03:03:00,27.0,27.0,29.43,WNW,292,0.0,0.0,100,0.00,,---,0.00,0.00,VWS V14.01,2013-03-07 08:03:00,
2013-03-07 03:08:00,27.0,27.0,29.43,NNW,337,0.0,0.0,100,0.00,,---,0.00,0.00,VWS V14.01,2013-03-07 08:08:00,
2013-03-07 03:13:00,27.0,27.0,29.43,NW,315,0.0,0.0,100,0.00,,---,0.00,0.00,VWS V14.01,2013-03-07 08:13:00,
2013-03-07 03:18:00,27.0,27.0,29.43,NW,315,0.0,0.0,100,0.00,,---,0.00,0.00,VWS V14.01,2013-03-07 08:18:00,
2013-03-07 03:23:00,27.0,27.0,29.43,NNW,337,1.0,1.0,100,0.00,,---,0.00,0.00,VWS V14.01,2013-03-07 08:23:00,
2013-03-07 03:28:00,27.0,27.0,29.43,SW,225,0.0,0.0,100,0.00,,---,0.00,0.00,VWS V14.01,2013-03-07 08:28:00,
2013-03-07 03:33:00,27.0,27.0,29.43,WSW,247,0.0,3.0,100,0.00,,---,0.00,0.00,VWS V14.01,2013-03-07 08:33:00,
2013-03-07 03:38:00,27.0,27.0,29.44,WNW,292,0.0,0.0,100,0.00,,---,0.00,0.00,VWS V14.01,2013-03-07 08:38:00,
2013-03-07 03:43:00,27.0,27.0,29.44,NNW,337,0.0,1.0,100,0.00,,---,0.00,0.00,VWS V14.01,2013-03-07 08:43:00,
2013-03-07 03:48:00,27.0,27.0,29.44,NW,315,0.0,0.0,100,0.00,,---,0.00,0.00,VWS V14.01,2013-03-07 08:48:00,
2013-03-07 03:53:00,27.0,27.0,29.44,NW,315,0.0,1.0,100,0.00,,---,0.00,0.00,VWS V14.01,2013-03-07 08:53:00,
2013-03-07 03:58:00,27.0,27.0,29.44,WNW,292,0.0,0.0,100,0.00,,---,0.00,0.00,VWS V14.01,2013-03-07 08:58:00,
2013-03-07 04:03:00,27.0,27.0,29.44,NNW,337,0.0,1.0,100,0.00,,---,0.00,0.00,VWS V14.01,2013-03-07 09:03:00,
2013-03-07 04:08:00,27.0,27.0,29.44,NNW,337,0.0,2.0,100,0.00,,---,0.00,0.00,VWS V14.01,2013-03-07 09:08:00,
2013-03-07 04:13:00,27.0,27.0,29.44,WNW,292,0.0,0.0,100,0.00,,---,0.00,0.00,VWS V14.01,2013-03-07 09:13:00,
2013-03-07 04:18:00,27.0,27.0,29.45,WNW,292,0.0,0.0,100,0.00,,---,0.00,0.00,VWS V14.01,2013-03-07 09:18:00,
2013-03-07 04:23:00,27.0,27.0,29.45,NW,315,0.0,0.0,100,0.00,,---,0.00,0.00,VWS V14.01,2013-03-07 09:23:00,
2013-03-07 04:28:00,27.0,27.0,29.45,WNW,292,0.0,0.0,100,0.00,,---,0.00,0.00,VWS V14.01,2013-03-07 09:28:00,
2013-03-07 04:33:00,27.0,27.0,29.45,NW,315,0.0,0.0,100,0.00,,---,0.00,0.00,VWS V14.01,2013-03-07 09:33:00,
2013-03-07 04:38:00,27.0,27.0,29.44,NNW,337,0.0,0.0,100,0.00,,---,0.00,0.00,VWS V14.01,2013-03-07 09:38:00,
2013-03-07 04:43:00,27.0,27.0,29.44,WSW,247,0.0,0.0,100,0.00,,---,0.00,0.00,VWS V14.01,2013-03-07 09:43:00,
2013-03-07 04:48:00,27.0,27.0,29.45,NNW,337,0.0,0.0,100,0.00,,---,0.00,0.00,VWS V14.01,2013-03-07 09:48:00,
2013-03-07 04:53:00,27.0,27.0,29.45,WNW,292,0.0,0.0,100,0.00,,---,0.00,0.00,VWS V14.01,2013-03-07 09:53:00,
2013-03-07 04:58:00,27.0,27.0,29.45,WNW,292,0.0,3.0,100,0.00,,---,0.00,0.00,VWS V14.01,2013-03-07 09:58:00,
2013-03-07 05:03:00,27.0,27.0,29.45,WNW,292,2.0,2.0,100,0.00,,---,0.00,0.00,VWS V14.01,2013-03-07 10:03:00,
2013-03-07 05:08:00,27.0,27.0,29.45,WNW,292,0.0,3.0,100,0.00,,---,0.00,0.00,VWS V14.01,2013-03-07 10:08:00,
2013-03-07 05:13:00,27.0,27.0,29.45,WSW,247,0.0,1.0,100,0.00,,---,0.00,0.00,VWS V14.01,2013-03-07 10:13:00,
2013-03-07 05:18:00,27.0,27.0,29.45,NW,315,0.0,1.0,100,0.00,,---,0.00,0.00,VWS V14.01,2013-03-07 10:18:00,
2013-03-07 05:23:00,27.0,27.0,29.46,NW,315,0.0,0.0,100,0.00,,---,0.00,0.00,VWS V14.01,2013-03-07 10:23:00,
2013-03-07 05:28:00,27.0,27.0,29.46,NNW,337,0.0,1.0,100,0.00,,---,0.00,0.00,VWS V14.01,2013-03-07 10:28:00,
2013-03-07 05:33:00,27.0,27.0,29.46,WNW,292,0.0,0.0,100,0.00,,---,0.00,0.00,VWS V14.01,2013-03-07 10:33:00,
2013-03-07 05:38:00,27.0,27.0,29.46,WNW,292,1.0,3.0,100,0.00,,---,0.00,0.00,VWS V14.01,2013-03-07 10:38:00,
2013-03-07 05:44:00,27.0,27.0,29.46,WNW,292,0.0,1.0,100,0.00,,---,0.00,0.00,VWS V14.01,2013-03-07 10:44:00,
2013-03-07 05:49:00,27.0,27.0,29.46,SSW,202,0.0,1.0,100,0.00,,---,0.00,0.00,VWS V14.01,2013-03-07 10:49:00,
2013-03-07 05:54:00,27.0,27.0,29.46,SSE,157,0.0,1.0,100,0.00,,---,0.00,0.00,VWS V14.01,2013-03-07 10:54:00,
2013-03-07 05:59:00,27.0,27.0,29.46,NNW,337,0.0,0.0,100,0.00,,---,0.00,0.00,VWS V14.01,2013-03-07 10:59:00,
2013-03-07 06:04:00,27.0,27.0,29.46,NNW,337,0.0,0.0,100,0.00,,---,0.00,0.00,VWS V14.01,2013-03-07 11:04:00,
2013-03-07 06:09:00,27.0,27.0,29.46,NW,315,0.0,0.0,100,0.00,,---,0.00,0.00,VWS V14.01,2013-03-07 11:09:00,
2013-03-07 06:14:00,27.0,27.0,29.47,North,360,3.0,4.0,100,0.00,,---,0.00,0.00,VWS V14.01,2013-03-07 11:14:00,
2013-03-07 06:19:00,27.0,27.0,29.47,WNW,292,0.0,0.0,100,0.00,,---,0.00,0.00,VWS V14.01,2013-03-07 11:19:00,
2013-03-07 06:24:00,27.0,27.0,29.47,WNW,292,0.0,0.0,100,0.00,,---,0.00,0.00,VWS V14.01,2013-03-07 11:24:00,
2013-03-07 06:29:00,27.0,27.0,29.47,NNW,337,0.0,1.0,100,0.00,,---,0.00,0.00,VWS V14.01,2013-03-07 11:29:00,
2013-03-07 06:34:00,27.0,27.0,29.47,NNW,337,0.0,0.0,100,0.00,,---,0.00,0.00,VWS V14.01,2013-03-07 11:34:00,
2013-03-07 06:39:00,27.0,27.0,29.47,NW,315,0.0,0.0,100,0.00,,---,0.00,0.00,VWS V14.01,2013-03-07 11:39:00,
2013-03-07 06:44:00,27.0,27.0,29.47,NW,315,0.0,2.0,100,0.00,,---,0.00,0.00,VWS V14.01,2013-03-07 11:44:00,
2013-03-07 06:49:00,27.0,27.0,29.47,WNW,292,0.0,1.0,100,0.00,,---,0.00,0.00,VWS V14.01,2013-03-07 11:49:00,
2013-03-07 06:54:00,27.0,27.0,29.48,WNW,292,0.0,0.0,100,0.00,,---,0.00,0.00,VWS V14.01,2013-03-07 11:54:00,
2013-03-07 06:59:00,27.0,27.0,29.48,NW,315,0.0,1.0,100,0.00,,---,0.00,0.00,VWS V14.01,2013-03-07 11:59:00,
2013-03-07 07:04:00,27.0,27.0,29.48,NNW,337,0.0,0.0,100,0.00,,---,0.00,0.00,VWS V14.01,2013-03-07 12:04:00,
2013-03-07 07:09:00,27.0,27.0,29.48,NW,315,3.0,3.0,100,0.00,,---,0.00,0.00,VWS V14.01,2013-03-07 12:09:00,
2013-03-07 07:14:00,27.0,27.0,29.49,West,270,0.0,0.0,100,0.00,,---,0.00,0.00,VWS V14.01,2013-03-07 12:14:00,
2013-03-07 07:19:00,27.0,27.0,29.49,West,270,1.0,1.0,100,0.00,,---,0.00,0.00,VWS V14.01,2013-03-07 12:19:00,
2013-03-07 07:24:00,27.0,27.0,29.49,NNW,337,3.0,3.0,100,0.00,,---,0.00,0.00,VWS V14.01,2013-03-07 12:24:00,
2013-03-07 07:29:00,27.0,27.0,29.49,NW,315,0.0,2.0,100,0.00,,---,0.00,0.00,VWS V14.01,2013-03-07 12:29:00,
2013-03-07 07:34:00,27.0,27.0,29.49,NW,315,0.0,0.0,100,0.00,,---,0.00,0.00,VWS V14.01,2013-03-07 12:34:00,
2013-03-07 07:39:00,27.0,27.0,29.49,WNW,292,0.0,0.0,100,0.00,,---,0.00,0.00,VWS V14.01,2013-03-07 12:39:00,
2013-03-07 07:45:00,27.0,27.0,29.49,NNW,337,0.0,3.0,100,0.00,,---,0.00,0.00,VWS V14.01,2013-03-07 12:45:00,
2013-03-07 07:50:00,27.0,27.0,29.49,WNW,292,0.0,0.0,100,0.00,,---,0.00,0.00,VWS V14.01,2013-03-07 12:50:00,
2013-03-07 07:55:00,27.0,27.0,29.49,WNW,292,0.0,0.0,100,0.00,,---,0.00,0.00,VWS V14.01,2013-03-07 12:55:00,
2013-03-07 08:00:00,27.0,27.0,29.49,WNW,292,0.0,0.0,100,0.00,,---,0.00,0.00,VWS V14.01,2013-03-07 13:00:00,
2013-03-07 08:05:00,27.0,27.0,29.50,WNW,292,0.0,0.0,100,0.00,,---,0.00,0.00,VWS V14.01,2013-03-07 13:05:00,
2013-03-07 08:10:00,27.0,27.0,29.50,WNW,292,0.0,0.0,100,0.00,,---,0.00,0.00,VWS V14.01,2013-03-07 13:10:00,
2013-03-07 08:15:00,28.0,28.0,29.49,WNW,292,0.0,0.0,100,0.00,,---,0.00,0.00,VWS V14.01,2013-03-07 13:15:00,
2013-03-07 08:20:00,28.0,28.0,29.49,NW,315,0.0,0.0,100,0.00,,---,0.00,0.00,VWS V14.01,2013-03-07 13:20:00,
2013-03-07 08:25:00,28.0,28.0,29.51,NNW,337,0.0,0.0,100,0.00,,---,0.00,0.00,VWS V14.01,2013-03-07 13:25:00,
2013-03-07 08:30:00,28.0,28.0,29.51,WNW,292,0.0,0.0,100,0.00,,---,0.00,0.00,VWS V14.01,2013-03-07 13:30:00,
2013-03-07 08:35:00,28.0,28.0,29.51,WNW,292,0.0,0.0,100,0.00,,---,0.00,0.00,VWS V14.01,2013-03-07 13:35:00,
2013-03-07 08:40:00,28.0,28.0,29.51,NW,315,0.0,0.0,100,0.00,,---,0.00,0.00,VWS V14.01,2013-03-07 13:40:00,
2013-03-07 08:45:00,28.0,28.0,29.51,WNW,292,0.0,1.0,100,0.00,,---,0.00,0.00,VWS V14.01,2013-03-07 13:45:00,
2013-03-07 08:51:00,29.0,29.0,29.51,WNW,292,0.0,2.0,100,0.00,,---,0.00,0.00,VWS V14.01,2013-03-07 13:51:00,
2013-03-07 08:56:00,29.0,29.0,29.51,NW,315,0.0,0.0,100,0.00,,---,0.00,0.00,VWS V14.01,2013-03-07 13:56:00,
2013-03-07 09:01:00,29.0,29.0,29.51,WNW,292,0.0,0.0,100,0.00,,---,0.00,0.00,VWS V14.01,2013-03-07 14:01:00,
2013-03-07 09:06:00,29.0,29.0,29.51,NW,315,0.0,0.0,100,0.00,,---,0.00,0.00,VWS V14.01,2013-03-07 14:06:00,
2013-03-07 09:11:00,30.0,30.0,29.51,NW,315,0.0,0.0,100,0.00,,---,0.00,0.00,VWS V14.01,2013-03-07 14:11:00,
2013-03-07 09:16:00,30.0,30.0,29.50,WSW,247,0.0,0.0,100,0.00,,---,0.00,0.00,VWS V14.01,2013-03-07 14:16:00,
2013-03-07 09:21:00,30.0,30.0,29.50,NW,315,0.0,1.0,100,0.00,,---,0.00,0.00,VWS V14.01,2013-03-07 14:21:00,
2013-03-07 09:26:00,30.0,30.0,29.50,NNW,337,1.0,2.0,100,0.00,,---,0.00,0.00,VWS V14.01,2013-03-07 14:26:00,
2013-03-07 09:31:00,30.0,30.0,29.50,WNW,292,0.0,0.0,100,0.00,,---,0.00,0.00,VWS V14.01,2013-03-07 14:31:00,
2013-03-07 09:36:00,30.0,30.0,29.50,WNW,292,1.0,3.0,100,0.00,,---,0.00,0.00,VWS V14.01,2013-03-07 14:36:00,
2013-03-07 09:41:00,30.0,30.0,29.50,WNW,292,1.0,1.0,100,0.00,,---,0.00,0.00,VWS V14.01,2013-03-07 14:41:00,
2013-03-07 09:46:00,31.0,31.0,29.50,NW,315,3.0,3.0,100,0.00,,---,0.00,0.00,VWS V14.01,2013-03-07 14:46:00,
2013-03-07 09:51:00,31.0,31.0,29.50,WNW,292,0.0,1.0,100,0.00,,---,0.00,0.00,VWS V14.01,2013-03-07 14:51:00,
2013-03-07 09:57:00,31.0,31.0,29.50,West,270,0.0,0.0,100,0.00,,---,0.00,0.00,VWS V14.01,2013-03-07 14:57:00,
2013-03-07 10:02:00,31.0,31.0,29.50,WNW,292,0.0,0.0,100,0.00,,---,0.00,0.00,VWS V14.01,2013-03-07 15:02:00,
2013-03-07 10:07:00,32.0,32.0,29.50,NNE,22,3.0,3.0,100,0.00,,---,0.00,0.00,VWS V14.01,2013-03-07 15:07:00,
2013-03-07 10:12:00,32.0,32.0,29.50,NW,315,0.0,2.0,100,0.00,,---,0.00,0.00,VWS V14.01,2013-03-07 15:12:00,
2013-03-07 10:17:00,32.0,32.0,29.50,WNW,292,0.0,4.0,100,0.00,,---,0.00,0.00,VWS V14.01,2013-03-07 15:17:00,
2013-03-07 10:22:00,32.0,32.0,29.50,WNW,292,0.0,0.0,100,0.00,,---,0.00,0.00,VWS V14.01,2013-03-07 15:22:00,
2013-03-07 10:27:00,33.0,33.0,29.50,WSW,247,0.0,2.0,100,0.00,,---,0.00,0.00,VWS V14.01,2013-03-07 15:27:00,
2013-03-07 10:32:00,32.0,32.0,29.50,WNW,292,0.0,0.0,100,0.00,,---,0.00,0.00,VWS V14.01,2013-03-07 15:32:00,
2013-03-07 10:37:00,33.0,33.0,29.48,North,360,1.0,2.0,100,0.00,,---,0.00,0.00,VWS V14.01,2013-03-07 15:37:00,
2013-03-07 10:42:00,33.0,33.0,29.48,WNW,292,0.0,0.0,100,0.00,,---,0.00,0.00,VWS V14.01,2013-03-07 15:42:00,
2013-03-07 10:47:00,33.0,33.0,29.46,NNW,337,0.0,1.0,100,0.00,,---,0.00,0.00,VWS V14.01,2013-03-07 15:47:00,
2013-03-07 10:52:00,33.0,33.0,29.46,WNW,292,0.0,0.0,100,0.00,,---,0.00,0.00,VWS V14.01,2013-03-07 15:52:00,
2013-03-07 10:57:00,34.0,33.8,29.45,West,270,0.0,1.0,99,0.00,,---,0.00,0.00,VWS V14.01,2013-03-07 15:57:00,
2013-03-07 11:02:00,34.0,33.8,29.45,WSW,247,0.0,0.0,99,0.00,,---,0.00,0.00,VWS V14.01,2013-03-07 16:02:00,
2013-03-07 11:07:00,34.0,33.0,29.46,NNW,337,0.0,2.0,96,0.00,,---,0.00,0.00,VWS V14.01,2013-03-07 16:07:00,
2013-03-07 11:12:00,34.0,33.2,29.46,South,180,0.0,1.0,97,0.00,,---,0.00,0.00,VWS V14.01,2013-03-07 16:12:00,
2013-03-07 11:17:00,34.0,32.7,29.46,WNW,292,0.0,1.0,95,0.00,,---,0.00,0.00,VWS V14.01,2013-03-07 16:17:00,
2013-03-07 11:22:00,34.0,33.0,29.46,WNW,292,0.0,4.0,96,0.01,,---,0.01,0.00,VWS V14.01,2013-03-07 16:22:00,
2013-03-07 11:27:00,35.0,33.7,29.47,West,270,1.0,2.0,95,0.01,,---,0.01,0.00,VWS V14.01,2013-03-07 16:27:00,
2013-03-07 11:32:00,35.0,33.5,29.47,NNW,337,0.0,2.0,94,0.02,,---,0.02,0.00,VWS V14.01,2013-03-07 16:32:00,
2013-03-07 11:37:00,35.0,33.5,29.46,West,270,0.0,1.0,94,0.02,,---,0.02,0.00,VWS V14.01,2013-03-07 16:37:00,
2013-03-07 11:42:00,35.0,33.2,29.46,NW,315,0.0,1.0,93,0.02,,---,0.02,0.00,VWS V14.01,2013-03-07 16:42:00,
2013-03-07 11:47:00,35.0,32.6,29.46,NW,315,0.0,0.0,91,0.02,,---,0.02,0.00,VWS V14.01,2013-03-07 16:47:00,
2013-03-07 11:52:00,35.0,32.9,29.46,NW,315,1.0,2.0,92,0.02,,---,0.03,0.00,VWS V14.01,2013-03-07 16:52:00,
2013-03-07 11:57:00,35.0,33.2,29.47,WSW,247,0.0,1.0,93,0.03,,---,0.03,0.00,VWS V14.01,2013-03-07 16:57:00,
2013-03-07 12:02:00,36.0,33.6,29.47,SW,225,0.0,3.0,91,0.03,,---,0.03,0.00,VWS V14.01,2013-03-07 17:02:00,
2013-03-07 12:07:00,37.0,34.1,29.46,WNW,292,1.0,1.0,89,0.04,,---,0.04,0.00,VWS V14.01,2013-03-07 17:07:00,
2013-03-07 12:12:00,38.0,34.8,29.46,NNW,337,0.0,3.0,88,0.05,,---,0.05,0.00,VWS V14.01,2013-03-07 17:12:00,
2013-03-07 12:17:00,39.0,34.9,29.44,NNW,337,0.0,2.0,85,0.05,,---,0.05,0.00,VWS V14.01,2013-03-07 17:17:00,
2013-03-07 12:22:00,40.0,35.0,29.44,SW,225,1.0,2.0,82,0.05,,---,0.06,0.00,VWS V14.01,2013-03-07 17:22:00,
2013-03-07 12:27:00,38.0,32.7,29.45,West,270,0.0,3.0,81,0.05,,---,0.06,0.00,VWS V14.01,2013-03-07 17:27:00,
2013-03-07 12:32:00,40.0,35.3,29.45,SSE,157,0.0,0.0,83,0.05,,---,0.07,0.00,VWS V14.01,2013-03-07 17:32:00,
2013-03-07 12:37:00,40.0,34.3,29.46,SSE,157,0.0,0.0,80,0.06,,---,0.08,0.00,VWS V14.01,2013-03-07 17:37:00,
2013-03-07 12:43:00,40.0,34.3,29.46,NW,315,0.0,0.0,80,0.06,,---,0.08,0.00,VWS V14.01,2013-03-07 17:43:00,
2013-03-07 12:48:00,39.0,33.4,29.47,NW,315,0.0,3.0,80,0.07,,---,0.09,0.00,VWS V14.01,2013-03-07 17:48:00,
2013-03-07 12:53:00,38.0,32.7,29.47,NW,315,1.0,1.0,81,0.07,,---,0.09,0.00,VWS V14.01,2013-03-07 17:53:00,
2013-03-07 12:58:00,39.0,33.7,29.48,SSW,202,0.0,0.0,81,0.07,,---,0.10,0.00,VWS V14.01,2013-03-07 17:58:00,
2013-03-07 13:03:00,38.0,32.7,29.48,WSW,247,1.0,3.0,81,0.08,,---,0.11,0.00,VWS V14.01,2013-03-07 18:03:00,
2013-03-07 13:08:00,38.0,33.9,29.47,WNW,292,0.0,1.0,85,0.07,,---,0.12,0.00,VWS V14.01,2013-03-07 18:08:00,
2013-03-07 13:13:00,38.0,33.0,29.47,NW,315,0.0,0.0,82,0.08,,---,0.12,0.00,VWS V14.01,2013-03-07 18:13:00,
2013-03-07 13:18:00,38.0,33.0,29.47,East,90,0.0,0.0,82,0.08,,---,0.13,0.00,VWS V14.01,2013-03-07 18:18:00,
2013-03-07 13:23:00,39.0,33.4,29.47,West,270,0.0,0.0,80,0.07,,---,0.13,0.00,VWS V14.01,2013-03-07 18:23:00,
2013-03-07 13:28:00,38.0,32.7,29.46,NNW,337,0.0,0.0,81,0.08,,---,0.14,0.00,VWS V14.01,2013-03-07 18:28:00,
2013-03-07 13:33:00,39.0,32.4,29.46,North,360,1.0,2.0,77,0.08,,---,0.15,0.00,VWS V14.01,2013-03-07 18:33:00,
2013-03-07 13:38:00,38.0,32.4,29.46,WSW,247,0.0,3.0,80,0.07,,---,0.15,0.00,VWS V14.01,2013-03-07 18:38:00,
2013-03-07 13:43:00,38.0,32.7,29.46,NW,315,0.0,0.0,81,0.07,,---,0.16,0.00,VWS V14.01,2013-03-07 18:43:00,
2013-03-07 13:49:00,37.0,32.0,29.46,NW,315,0.0,3.0,82,0.07,,---,0.16,0.00,VWS V14.01,2013-03-07 18:49:00,
2013-03-07 13:54:00,38.0,32.4,29.45,NNW,337,3.0,4.0,80,0.07,,---,0.17,0.00,VWS V14.01,2013-03-07 18:54:00,
2013-03-07 13:59:00,37.0,31.7,29.45,WNW,292,0.0,3.0,81,0.07,,---,0.17,0.00,VWS V14.01,2013-03-07 18:59:00,
2013-03-07 14:04:00,37.0,32.0,29.45,WNW,292,0.0,2.0,82,0.06,,---,0.17,0.00,VWS V14.01,2013-03-07 19:04:00,
2013-03-07 14:09:00,38.0,32.4,29.45,WNW,292,2.0,3.0,80,0.06,,---,0.18,0.00,VWS V14.01,2013-03-07 19:09:00,
2013-03-07 14:14:00,38.0,32.4,29.45,WNW,292,1.0,1.0,80,0.06,,---,0.18,0.00,VWS V14.01,2013-03-07 19:14:00,
2013-03-07 14:19:00,37.0,32.3,29.45,WNW,292,0.0,0.0,83,0.06,,---,0.19,0.00,VWS V14.01,2013-03-07 19:19:00,
2013-03-07 14:24:00,38.0,32.7,29.46,WNW,292,0.0,1.0,81,0.06,,---,0.19,0.00,VWS V14.01,2013-03-07 19:24:00,
2013-03-07 14:30:00,37.0,32.0,29.46,NW,315,0.0,2.0,82,0.06,,---,0.20,0.00,VWS V14.01,2013-03-07 19:30:00,
2013-03-07 14:35:00,37.0,31.7,29.46,West,270,1.0,3.0,81,0.05,,---,0.20,0.00,VWS V14.01,2013-03-07 19:35:00,
2013-03-07 14:40:00,38.0,33.0,29.46,NW,315,1.0,3.0,82,0.05,,---,0.20,0.00,VWS V14.01,2013-03-07 19:40:00,
2013-03-07 14:45:00,38.0,32.4,29.46,WSW,247,0.0,0.0,80,0.05,,---,0.21,0.00,VWS V14.01,2013-03-07 19:45:00,
2013-03-07 14:50:00,38.0,32.4,29.46,ENE,67,0.0,0.0,80,0.05,,---,0.21,0.00,VWS V14.01,2013-03-07 19:50:00,
2013-03-07 14:55:00,37.0,31.7,29.47,NW,315,3.0,7.0,81,0.05,,---,0.22,0.00,VWS V14.01,2013-03-07 19:55:00,
2013-03-07 15:00:00,37.0,31.7,29.47,North,360,0.0,2.0,81,0.05,,---,0.23,0.00,VWS V14.01,2013-03-07 20:00:00,
2013-03-07 15:06:00,37.0,31.7,29.47,WNW,292,0.0,2.0,81,0.06,,---,0.23,0.00,VWS V14.01,2013-03-07 20:06:00,
2013-03-07 15:11:00,37.0,31.7,29.47,WSW,247,0.0,4.0,81,0.05,,---,0.23,0.00,VWS V14.01,2013-03-07 20:11:00,
2013-03-07 15:16:00,37.0,31.4,29.47,West,270,3.0,3.0,80,0.06,,---,0.24,0.00,VWS V14.01,2013-03-07 20:16:00,
2013-03-07 15:21:00,36.0,30.1,29.47,NNW,337,2.0,4.0,79,0.05,,---,0.24,0.00,VWS V14.01,2013-03-07 20:21:00,
2013-03-07 15:26:00,37.0,31.4,29.47,SSE,157,0.0,1.0,80,0.05,,---,0.24,0.00,VWS V14.01,2013-03-07 20:26:00,
2013-03-07 15:31:00,37.0,31.4,29.47,WNW,292,0.0,0.0,80,0.05,,---,0.24,0.00,VWS V14.01,2013-03-07 20:31:00,
2013-03-07 15:36:00,36.0,30.8,29.47,NW,315,1.0,1.0,81,0.04,,---,0.24,0.00,VWS V14.01,2013-03-07 20:36:00,
2013-03-07 15:41:00,36.0,31.4,29.47,WNW,292,0.0,0.0,83,0.04,,---,0.24,0.00,VWS V14.01,2013-03-07 20:41:00,
2013-03-07 15:46:00,37.0,31.4,29.48,NNW,337,4.0,4.0,80,0.04,,---,0.25,0.00,VWS V14.01,2013-03-07 20:46:00,
2013-03-07 15:51:00,36.0,30.4,29.48,NNW,337,4.0,4.0,80,0.04,,---,0.25,0.00,VWS V14.01,2013-03-07 20:51:00,
2013-03-07 15:56:00,36.0,31.0,29.48,NW,315,0.0,0.0,82,0.03,,---,0.25,0.00,VWS V14.01,2013-03-07 20:56:00,
2013-03-07 16:01:00,36.0,30.8,29.48,WSW,247,1.0,3.0,81,0.03,,---,0.25,0.00,VWS V14.01,2013-03-07 21:01:00,
2013-03-07 16:06:00,36.0,29.8,29.48,WNW,292,2.0,3.0,78,0.02,,---,0.25,0.00,VWS V14.01,2013-03-07 21:06:00,
2013-03-07 16:11:00,36.0,29.8,29.48,NNW,337,0.0,0.0,78,0.02,,---,0.25,0.00,VWS V14.01,2013-03-07 21:11:00,
2013-03-07 16:16:00,36.0,29.5,29.48,SW,225,0.0,0.0,77,0.02,,---,0.26,0.00,VWS V14.01,2013-03-07 21:16:00,
2013-03-07 16:21:00,37.0,29.5,29.48,WNW,292,0.0,0.0,74,0.02,,---,0.26,0.00,VWS V14.01,2013-03-07 21:21:00,
2013-03-07 16:27:00,37.0,28.8,29.47,WNW,292,1.0,2.0,72,0.02,,---,0.26,0.00,VWS V14.01,2013-03-07 21:27:00,
2013-03-07 16:32:00,36.0,28.9,29.47,WSW,247,0.0,0.0,75,0.02,,---,0.26,0.00,VWS V14.01,2013-03-07 21:32:00,
2013-03-07 16:37:00,36.0,29.2,29.48,West,270,0.0,0.0,76,0.02,,---,0.26,0.00,VWS V14.01,2013-03-07 21:37:00,
2013-03-07 16:42:00,36.0,29.5,29.48,WNW,292,0.0,0.0,77,0.02,,---,0.26,0.00,VWS V14.01,2013-03-07 21:42:00,
2013-03-07 16:47:00,36.0,28.9,29.47,NNW,337,3.0,3.0,75,0.01,,---,0.26,0.00,VWS V14.01,2013-03-07 21:47:00,
2013-03-07 16:52:00,36.0,28.5,29.47,NW,315,0.0,0.0,74,0.01,,---,0.26,0.00,VWS V14.01,2013-03-07 21:52:00,
2013-03-07 16:57:00,36.0,29.2,29.47,NW,315,0.0,0.0,76,0.01,,---,0.26,0.00,VWS V14.01,2013-03-07 21:57:00,
2013-03-07 17:02:00,36.0,28.9,29.47,NNW,337,0.0,0.0,75,0.01,,---,0.26,0.00,VWS V14.01,2013-03-07 22:02:00,
2013-03-07 17:07:00,36.0,29.2,29.47,WNW,292,0.0,0.0,76,0.01,,---,0.26,0.00,VWS V14.01,2013-03-07 22:07:00,
2013-03-07 17:12:00,36.0,29.5,29.47,NW,315,0.0,0.0,77,0.01,,---,0.26,0.00,VWS V14.01,2013-03-07 22:12:00,
2013-03-07 17:18:00,36.0,30.1,29.48,NW,315,0.0,0.0,79,0.00,,---,0.26,0.00,VWS V14.01,2013-03-07 22:18:00,
2013-03-07 17:23:00,35.0,28.9,29.48,NNW,337,2.0,2.0,78,0.00,,---,0.26,0.00,VWS V14.01,2013-03-07 22:23:00,
2013-03-07 17:28:00,35.0,28.5,29.49,NNW,337,0.0,1.0,77,0.00,,---,0.26,0.00,VWS V14.01,2013-03-07 22:28:00,
2013-03-07 17:33:00,35.0,29.5,29.49,NW,315,0.0,0.0,80,0.00,,---,0.26,0.00,VWS V14.01,2013-03-07 22:33:00,
2013-03-07 17:38:00,35.0,29.2,29.49,NNW,337,0.0,1.0,79,0.00,,---,0.26,0.00,VWS V14.01,2013-03-07 22:38:00,
2013-03-07 17:43:00,34.0,27.9,29.49,NW,315,2.0,3.0,78,0.00,,---,0.26,0.00,VWS V14.01,2013-03-07 22:43:00,
2013-03-07 17:48:00,34.0,27.9,29.50,NNW,337,0.0,0.0,78,0.00,,---,0.26,0.00,VWS V14.01,2013-03-07 22:48:00,
2013-03-07 17:53:00,34.0,27.6,29.50,ESE,112,0.0,0.0,77,0.00,,---,0.26,0.00,VWS V14.01,2013-03-07 22:53:00,
2013-03-07 17:58:00,34.0,28.8,29.50,NW,315,0.0,0.0,81,0.00,,---,0.26,0.00,VWS V14.01,2013-03-07 22:58:00,
2013-03-07 18:03:00,34.0,28.2,29.50,NNW,337,0.0,0.0,79,0.00,,---,0.26,0.00,VWS V14.01,2013-03-07 23:03:00,
2013-03-07 18:08:00,34.0,28.2,29.51,NNW,337,0.0,0.0,79,0.00,,---,0.26,0.00,VWS V14.01,2013-03-07 23:08:00,
2013-03-07 18:13:00,34.0,28.5,29.51,NW,315,0.0,0.0,80,0.00,,---,0.26,0.00,VWS V14.01,2013-03-07 23:13:00,
2013-03-07 18:18:00,34.0,29.1,29.51,WNW,292,0.0,0.0,82,0.00,,---,0.26,0.00,VWS V14.01,2013-03-07 23:18:00,
2013-03-07 18:23:00,34.0,29.4,29.51,WNW,292,0.0,0.0,83,0.00,,---,0.26,0.00,VWS V14.01,2013-03-07 23:23:00,
2013-03-07 18:28:00,33.0,28.7,29.51,WNW,292,0.0,0.0,84,0.00,,---,0.26,0.00,VWS V14.01,2013-03-07 23:28:00,
2013-03-07 18:33:00,33.0,28.7,29.51,NW,315,0.0,0.0,84,0.00,,---,0.26,0.00,VWS V14.01,2013-03-07 23:33:00,
2013-03-07 18:38:00,33.0,28.7,29.52,NNW,337,0.0,1.0,84,0.00,,---,0.26,0.00,VWS V14.01,2013-03-07 23:38:00,
2013-03-07 18:43:00,33.0,28.7,29.52,NNW,337,0.0,0.0,84,0.00,,---,0.26,0.00,VWS V14.01,2013-03-07 23:43:00,
2013-03-07 18:48:00,33.0,28.7,29.52,North,360,0.0,0.0,84,0.00,,---,0.26,0.00,VWS V14.01,2013-03-07 23:48:00,
2013-03-07 18:53:00,33.0,29.0,29.52,North,360,0.0,0.0,85,0.00,,---,0.26,0.00,VWS V14.01,2013-03-07 23:53:00,
2013-03-07 18:58:00,33.0,29.3,29.52,NNW,337,0.0,1.0,86,0.00,,---,0.26,0.00,VWS V14.01,2013-03-07 23:58:00,
2013-03-07 19:03:00,33.0,29.3,29.52,NNW,337,0.0,0.0,86,0.00,,---,0.26,0.00,VWS V14.01,2013-03-08 00:03:00,
2013-03-07 19:08:00,33.0,29.3,29.53,NNW,337,0.0,0.0,86,0.00,,---,0.26,0.00,VWS V14.01,2013-03-08 00:08:00,
2013-03-07 19:13:00,33.0,29.6,29.53,NNW,337,0.0,0.0,87,0.00,,---,0.26,0.00,VWS V14.01,2013-03-08 00:13:00,
2013-03-07 19:18:00,32.0,28.9,29.53,NNW,337,0.0,0.0,88,0.00,,---,0.26,0.00,VWS V14.01,2013-03-08 00:18:00,
2013-03-07 19:23:00,32.0,28.9,29.53,NNW,337,0.0,0.0,88,0.00,,---,0.26,0.00,VWS V14.01,2013-03-08 00:23:00,
2013-03-07 19:28:00,32.0,28.9,29.53,NNW,337,0.0,0.0,88,0.00,,---,0.26,0.00,VWS V14.01,2013-03-08 00:28:00,
2013-03-07 19:33:00,32.0,28.9,29.53,NNW,337,0.0,0.0,88,0.00,,---,0.26,0.00,VWS V14.01,2013-03-08 00:33:00,
2013-03-07 19:38:00,32.0,28.9,29.53,NNW,337,0.0,0.0,88,0.00,,---,0.26,0.00,VWS V14.01,2013-03-08 00:38:00,
2013-03-07 19:43:00,32.0,29.1,29.53,NNW,337,0.0,0.0,89,0.00,,---,0.26,0.00,VWS V14.01,2013-03-08 00:43:00,
2013-03-07 19:48:00,32.0,29.1,29.54,NNW,337,0.0,0.0,89,0.00,,---,0.26,0.00,VWS V14.01,2013-03-08 00:48:00,
2013-03-07 19:53:00,32.0,29.4,29.54,NNW,337,0.0,0.0,90,0.00,,---,0.26,0.00,VWS V14.01,2013-03-08 00:53:00,
2013-03-07 19:58:00,32.0,29.1,29.54,WNW,292,0.0,0.0,89,0.00,,---,0.26,0.00,VWS V14.01,2013-03-08 00:58:00,
2013-03-07 20:03:00,32.0,29.4,29.54,WNW,292,0.0,0.0,90,0.00,,---,0.26,0.00,VWS V14.01,2013-03-08 01:03:00,
2013-03-07 20:08:00,32.0,29.4,29.54,WNW,292,0.0,0.0,90,0.00,,---,0.26,0.00,VWS V14.01,2013-03-08 01:08:00,
2013-03-07 20:13:00,32.0,29.4,29.54,WNW,292,0.0,0.0,90,0.00,,---,0.26,0.00,VWS V14.01,2013-03-08 01:13:00,
2013-03-07 20:18:00,31.0,28.4,29.54,WNW,292,0.0,0.0,90,0.00,,---,0.26,0.00,VWS V14.01,2013-03-08 01:18:00,
2013-03-07 20:23:00,31.0,27.9,29.54,WNW,292,0.0,0.0,88,0.00,,---,0.26,0.00,VWS V14.01,2013-03-08 01:23:00,
2013-03-07 20:28:00,31.0,27.9,29.54,WNW,292,0.0,0.0,88,0.00,,---,0.26,0.00,VWS V14.01,2013-03-08 01:28:00,
2013-03-07 20:34:00,31.0,28.1,29.54,WNW,292,0.0,0.0,89,0.00,,---,0.26,0.00,VWS V14.01,2013-03-08 01:34:00,
2013-03-07 20:39:00,31.0,28.4,29.54,WNW,292,0.0,0.0,90,0.00,,---,0.26,0.00,VWS V14.01,2013-03-08 01:39:00,
2013-03-07 20:44:00,31.0,29.0,29.53,WNW,292,0.0,0.0,92,0.00,,---,0.26,0.00,VWS V14.01,2013-03-08 01:44:00,
2013-03-07 20:49:00,30.0,27.7,29.53,WNW,292,0.0,0.0,91,0.00,,---,0.26,0.00,VWS V14.01,2013-03-08 01:49:00,
2013-03-07 20:54:00,30.0,28.2,29.54,WNW,292,0.0,0.0,93,0.00,,---,0.26,0.00,VWS V14.01,2013-03-08 01:54:00,
2013-03-07 20:59:00,30.0,28.2,29.54,WNW,292,0.0,0.0,93,0.00,,---,0.26,0.00,VWS V14.01,2013-03-08 01:59:00,
2013-03-07 21:04:00,30.0,28.7,29.53,WNW,292,0.0,0.0,95,0.00,,---,0.26,0.00,VWS V14.01,2013-03-08 02:04:00,
2013-03-07 21:09:00,30.0,28.7,29.53,WNW,292,0.0,0.0,95,0.00,,---,0.26,0.00,VWS V14.01,2013-03-08 02:09:00,
2013-03-07 21:14:00,29.0,29.0,29.54,ENE,67,0.0,0.0,100,0.00,,---,0.26,0.00,VWS V14.01,2013-03-08 02:14:00,
2013-03-07 21:19:00,29.0,28.5,29.54,ENE,67,0.0,0.0,98,0.00,,---,0.26,0.00,VWS V14.01,2013-03-08 02:19:00,
2013-03-07 21:24:00,29.0,28.8,29.53,ENE,67,0.0,0.0,99,0.00,,---,0.26,0.00,VWS V14.01,2013-03-08 02:24:00,
2013-03-07 21:29:00,28.0,27.8,29.53,ENE,67,0.0,0.0,99,0.00,,---,0.26,0.00,VWS V14.01,2013-03-08 02:29:00,
2013-03-07 21:34:00,28.0,28.0,29.53,ENE,67,0.0,0.0,100,0.00,,---,0.26,0.00,VWS V14.01,2013-03-08 02:34:00,
2013-03-07 21:39:00,28.0,28.0,29.53,ENE,67,0.0,0.0,100,0.00,,---,0.26,0.00,VWS V14.01,2013-03-08 02:39:00,
2013-03-07 21:44:00,28.0,28.0,29.54,ENE,67,0.0,0.0,100,0.00,,---,0.26,0.00,VWS V14.01,2013-03-08 02:44:00,
2013-03-07 21:49:00,28.0,28.0,29.54,NE,45,0.0,0.0,100,0.00,,---,0.26,0.00,VWS V14.01,2013-03-08 02:49:00,
2013-03-07 21:54:00,28.0,28.0,29.54,NE,45,0.0,0.0,100,0.00,,---,0.26,0.00,VWS V14.01,2013-03-08 02:54:00,
2013-03-07 21:59:00,28.0,28.0,29.54,NE,45,0.0,0.0,100,0.00,,---,0.26,0.00,VWS V14.01,2013-03-08 02:59:00,
2013-03-07 22:04:00,28.0,28.0,29.53,NE,45,0.0,0.0,100,0.00,,---,0.26,0.00,VWS V14.01,2013-03-08 03:04:00,
2013-03-07 22:09:00,27.0,27.0,29.53,NE,45,0.0,0.0,100,0.00,,---,0.26,0.00,VWS V14.01,2013-03-08 03:09:00,
2013-03-07 22:14:00,28.0,28.0,29.53,NE,45,0.0,0.0,100,0.00,,---,0.26,0.00,VWS V14.01,2013-03-08 03:14:00,
2013-03-07 22:19:00,27.0,27.0,29.53,NE,45,0.0,0.0,100,0.00,,---,0.26,0.00,VWS V14.01,2013-03-08 03:19:00,
2013-03-07 22:24:00,27.0,27.0,29.55,NE,45,0.0,0.0,100,0.00,,---,0.26,0.00,VWS V14.01,2013-03-08 03:24:00,
2013-03-07 22:29:00,26.0,26.0,29.55,NE,45,0.0,0.0,100,0.00,,---,0.26,0.00,VWS V14.01,2013-03-08 03:29:00,
2013-03-07 22:34:00,26.0,26.0,29.54,NE,45,0.0,0.0,100,0.00,,---,0.26,0.00,VWS V14.01,2013-03-08 03:34:00,
2013-03-07 22:39:00,26.0,26.0,29.54,NE,45,0.0,0.0,100,0.00,,---,0.26,0.00,VWS V14.01,2013-03-08 03:39:00,
2013-03-07 22:44:00,26.0,26.0,29.54,NE,45,0.0,0.0,100,0.00,,---,0.26,0.00,VWS V14.01,2013-03-08 03:44:00,
2013-03-07 22:49:00,26.0,26.0,29.54,NE,45,0.0,0.0,100,0.00,,---,0.26,0.00,VWS V14.01,2013-03-08 03:49:00,
2013-03-07 22:54:00,26.0,26.0,29.54,NE,45,0.0,0.0,100,0.00,,---,0.26,0.00,VWS V14.01,2013-03-08 03:54:00,
2013-03-07 22:59:00,25.0,25.0,29.54,NE,45,0.0,0.0,100,0.00,,---,0.26,0.00,VWS V14.01,2013-03-08 03:59:00,
2013-03-07 23:04:00,26.0,26.0,29.54,NNW,337,0.0,0.0,100,0.00,,---,0.26,0.00,VWS V14.01,2013-03-08 04:04:00,
2013-03-07 23:09:00,26.0,26.0,29.54,NNW,337,0.0,0.0,100,0.00,,---,0.26,0.00,VWS V14.01,2013-03-08 04:09:00,
2013-03-07 23:14:00,25.0,25.0,29.54,NNW,337,0.0,0.0,100,0.00,,---,0.26,0.00,VWS V14.01,2013-03-08 04:14:00,
2013-03-07 23:19:00,25.0,25.0,29.54,NNW,337,0.0,0.0,100,0.00,,---,0.26,0.00,VWS V14.01,2013-03-08 04:19:00,
2013-03-07 23:24:00,25.0,25.0,29.54,NNW,337,0.0,0.0,100,0.00,,---,0.26,0.00,VWS V14.01,2013-03-08 04:24:00,
2013-03-07 23:29:00,25.0,25.0,29.54,NNW,337,0.0,0.0,100,0.00,,---,0.26,0.00,VWS V14.01,2013-03-08 04:29:00,
2013-03-07 23:34:00,24.0,24.0,29.55,NNW,337,0.0,0.0,100,0.00,,---,0.26,0.00,VWS V14.01,2013-03-08 04:34:00,
2013-03-07 23:39:00,24.0,24.0,29.55,NNW,337,0.0,0.0,100,0.00,,---,0.26,0.00,VWS V14.01,2013-03-08 04:39:00,
2013-03-07 23:44:00,24.0,24.0,29.54,NNW,337,0.0,0.0,100,0.00,,---,0.26,0.00,VWS V14.01,2013-03-08 04:44:00,
2013-03-07 23:49:00,24.0,24.0,29.54,NNW,337,0.0,0.0,100,0.00,,---,0.26,0.00,VWS V14.01,2013-03-08 04:49:00,
2013-03-07 23:54:00,24.0,24.0,29.55,NNW,337,0.0,0.0,100,0.00,,---,0.26,0.00,VWS V14.01,2013-03-08 04:54:00,
2013-03-07 23:59:00,24.0,24.0,29.55,NNW,337,0.0,0.0,100,0.00,,---,0.26,0.00,VWS V14.01,2013-03-08 04:59:00,